Date String (YYYY-MM-DD hh:mm:ss) UTC,Instrument flags,Ambient pressure (hPa),Sample flow (lpm),Bypass flow (lpm),Sample temperature (°C),Ambient temperature (°C),ASC tube jacket temperature (°C),LED temperature (°C),Box temperature (°C),Sample RH (%),Span deviation,Mass concentration (μg/m³),Mass concentration (μg/m³),Mass concentration (μg/m³)
DateTimeUTC,F1_M11,P_M11,Q1_M11,Q2_M11,T1_M11,T2_M11,T3_M11,T4_M11,T5_M11,U1_M11,ZSPAN_M11,X0_M11,X2_M11,X1_M11
2022-07-20 16:00:00,,0830.4,5.00,0.00,29.6,27.3,00.0,38.2,31.4,19.8,0005.0,0020.67,0008.51,0007.09
2022-07-20 16:01:00,,0830.4,5.00,0.00,29.5,27.4,00.0,38.2,31.3,20.0,0004.7,0020.39,0008.51,0007.07
2022-07-20 16:02:00,,0830.4,5.01,0.00,29.5,27.6,00.0,38.2,31.3,19.9,0004.3,0020.35,0008.46,0007.06
2022-07-20 16:03:00,,0830.4,4.99,0.00,29.5,27.7,00.0,38.2,31.3,19.9,0004.2,0020.27,0008.44,0007.03
2022-07-20 16:04:00,,0830.3,5.01,0.00,29.5,27.9,00.0,38.2,31.4,20.1,0004.2,0019.53,0008.43,0007.02
2022-07-20 16:05:00,,0830.4,4.99,0.00,29.5,28.0,00.0,38.2,31.4,20.2,0004.3,0019.90,0008.45,0006.98
2022-07-20 16:06:00,,0830.4,5.02,0.00,29.5,28.2,00.0,38.3,31.5,19.9,0003.8,0020.12,0008.44,0006.96
2022-07-20 16:07:00,,0830.4,5.00,0.00,29.6,28.3,00.0,38.3,31.5,20.0,0003.5,0019.15,0008.33,0006.93
2022-07-20 16:08:00,,0830.4,5.00,0.00,29.6,28.4,00.0,38.3,31.6,20.2,0003.0,0018.89,0008.27,0006.91
2022-07-20 16:09:00,,0830.5,5.01,0.00,29.6,28.5,00.0,38.3,31.6,20.0,0002.5,0020.21,0008.30,0006.90
2022-07-20 16:10:00,,0830.5,4.99,0.00,29.6,27.9,00.0,38.2,31.6,19.9,0002.0,0020.00,0008.30,0006.89
2022-07-20 16:11:00,,0830.5,5.00,0.00,29.6,27.4,00.0,38.2,31.4,19.8,0002.1,0019.99,0008.25,0006.89
2022-07-20 16:12:00,,0830.5,5.00,0.00,29.6,27.3,00.0,38.2,31.4,20.0,0002.2,0019.06,0008.21,0006.89
2022-07-20 16:13:00,,0830.5,5.01,0.00,29.5,27.4,00.0,38.2,31.3,20.1,0002.2,0019.36,0008.26,0006.89
2022-07-20 16:14:00,,0830.5,5.00,0.00,29.5,27.5,00.0,38.2,31.3,20.4,0001.7,0020.53,0008.28,0006.89
2022-07-20 16:15:00,,0830.5,5.01,0.00,29.5,27.7,00.0,38.2,31.3,20.2,0002.2,0021.07,0008.27,0006.88
2022-07-20 16:16:00,,0830.5,4.99,0.00,29.5,27.9,00.0,38.2,31.4,20.4,0002.3,0021.40,0008.28,0006.89
2022-07-20 16:17:00,,0830.5,5.00,0.00,29.5,28.0,00.0,38.2,31.4,20.4,0002.8,0020.90,0008.30,0006.91
2022-07-20 16:18:00,,0830.5,5.01,0.00,29.5,28.2,00.0,38.3,31.5,20.4,0003.9,0021.65,0008.32,0006.93
2022-07-20 16:19:00,,0830.5,5.00,0.00,29.6,28.3,00.0,38.3,31.5,20.3,0004.2,0022.21,0008.36,0006.95
2022-07-20 16:20:00,,0830.5,4.99,0.00,29.6,28.4,00.0,38.3,31.6,20.2,0004.2,0021.61,0008.37,0006.95
2022-07-20 16:21:00,,0830.5,5.00,0.00,29.6,28.4,00.0,38.3,31.6,20.2,0004.0,0022.16,0008.41,0006.95
2022-07-20 16:22:00,,0830.5,5.00,0.00,29.6,27.7,00.0,38.2,31.5,20.2,0003.8,0022.86,0008.47,0006.95
2022-07-20 16:23:00,,0830.5,5.00,0.00,29.6,27.3,00.0,38.2,31.4,20.2,0003.3,0023.37,0008.49,0006.96
2022-07-20 16:24:00,,0830.4,5.00,0.00,29.6,27.3,00.0,38.2,31.4,20.1,0003.3,0022.92,0008.46,0006.98
2022-07-20 16:25:00,,0830.4,5.01,0.00,29.5,27.4,00.0,38.2,31.3,20.2,0003.5,0021.80,0008.49,0006.97
2022-07-20 16:26:00,,0830.4,4.99,0.00,29.5,27.6,00.0,38.2,31.3,20.3,0003.6,0021.41,0008.53,0006.99
2022-07-20 16:27:00,,0830.4,5.01,0.00,29.5,27.8,00.0,38.2,31.4,20.2,0003.4,0020.31,0008.51,0007.01
2022-07-20 16:28:00,,0830.4,5.00,0.00,29.5,27.9,00.0,38.2,31.4,20.3,0003.2,0020.40,0008.53,0007.03
2022-07-20 16:29:00,,0830.4,4.99,0.00,29.5,28.1,00.0,38.3,31.4,20.4,0003.1,0020.65,0008.59,0007.06
2022-07-20 16:30:00,,0830.4,4.99,0.00,29.5,28.2,00.0,38.3,31.5,20.5,0002.7,0021.96,0008.64,0007.10
2022-07-20 16:31:00,,0830.3,5.00,0.00,29.6,27.9,00.0,38.2,31.5,20.5,0002.7,0022.53,0008.74,0007.15
2022-07-20 16:32:00,,0830.3,5.01,0.00,29.5,27.3,00.0,38.2,31.4,20.8,0002.7,0023.09,0008.76,0007.18
2022-07-20 16:33:00,,0830.3,5.01,0.00,29.5,27.1,00.0,38.1,31.3,21.1,0002.8,0023.32,0008.81,0007.23
2022-07-20 16:34:00,,0830.4,5.00,0.00,29.5,27.2,00.0,38.2,31.3,21.4,0003.0,0024.17,0008.87,0007.26
2022-07-20 16:35:00,,0830.4,4.99,0.00,29.4,27.3,00.0,38.2,31.2,21.5,0003.0,0024.75,0008.90,0007.28
2022-07-20 16:36:00,,0830.4,5.00,0.00,29.4,27.5,00.0,38.2,31.3,22.0,0003.1,0025.18,0008.89,0007.31
2022-07-20 16:37:00,,0830.4,5.00,0.00,29.4,27.7,00.0,38.2,31.3,22.3,0003.0,0025.36,0008.90,0007.35
2022-07-20 16:38:00,,0830.4,5.00,0.00,29.4,27.9,00.0,38.2,31.3,22.1,0003.1,0025.76,0008.98,0007.39
2022-07-20 16:39:00,,0830.4,5.00,0.00,29.5,28.0,00.0,38.2,31.4,22.1,0002.8,0026.43,0009.06,0007.41
2022-07-20 16:40:00,,0830.4,5.00,0.00,29.5,28.2,00.0,38.2,31.5,21.7,0003.0,0026.42,0009.06,0007.40
2022-07-20 16:41:00,,0830.3,4.99,0.00,29.5,28.3,00.0,38.2,31.5,21.4,0002.9,0026.35,0009.07,0007.41
2022-07-20 16:42:00,,0830.4,5.00,0.00,29.5,27.8,00.0,38.1,31.5,21.8,0003.0,0025.13,0009.03,0007.40
2022-07-20 16:43:00,,0830.4,5.00,0.00,29.5,27.2,00.0,38.1,31.4,21.9,0003.1,0023.99,0009.00,0007.41
2022-07-20 16:44:00,,0830.4,5.00,0.00,29.5,27.2,00.0,38.1,31.3,22.4,0003.1,0024.19,0009.03,0007.43
2022-07-20 16:45:00,,0830.4,5.00,0.00,29.4,27.3,00.0,38.1,31.2,22.2,0003.4,0023.94,0009.04,0007.43
2022-07-20 16:46:00,,0830.4,5.00,0.00,29.4,27.5,00.0,38.1,31.2,21.9,0003.5,0023.33,0009.00,0007.43
2022-07-20 16:47:00,,0830.5,5.00,0.00,29.4,27.6,00.0,38.1,31.3,22.2,0003.6,0023.10,0009.04,0007.44
2022-07-20 16:48:00,,0830.4,5.01,0.00,29.4,27.8,00.0,38.2,31.3,22.0,0003.7,0022.93,0009.03,0007.43
2022-07-20 16:49:00,,0830.4,4.99,0.00,29.4,28.0,00.0,38.2,31.4,22.0,0003.6,0022.31,0008.99,0007.41
2022-07-20 16:50:00,,0830.5,5.01,0.00,29.5,28.1,00.0,38.2,31.4,21.8,0003.5,0022.58,0008.90,0007.39
2022-07-20 16:51:00,,0830.4,5.00,0.00,29.5,28.2,00.0,38.2,31.5,21.7,0003.3,0022.18,0008.81,0007.37
2022-07-20 16:52:00,,0830.4,5.01,0.00,29.5,27.8,00.0,38.1,31.4,21.9,0003.5,0020.94,0008.82,0007.35
2022-07-20 16:53:00,,0830.4,4.99,0.00,29.5,27.2,00.0,38.1,31.3,22.1,0003.3,0020.80,0008.86,0007.34
2022-07-20 16:54:00,,0830.3,4.98,0.00,29.4,27.2,00.0,38.1,31.3,22.1,0002.0,0021.09,0008.86,0007.33
2022-07-20 16:55:00,,0830.4,5.00,0.00,29.4,27.3,00.0,38.1,31.2,21.9,0001.9,0022.27,0008.85,0007.29
2022-07-20 16:56:00,,0830.3,5.01,0.00,29.4,27.4,00.0,38.1,31.2,21.9,0003.5,0023.11,0008.83,0007.26
2022-07-20 16:57:00,,0830.3,5.00,0.00,29.4,27.6,00.0,38.1,31.2,21.9,0002.5,0023.25,0008.82,0007.23
2022-07-20 16:58:00,,0830.3,4.99,0.00,29.4,27.8,00.0,38.1,31.3,22.3,0001.6,0023.30,0008.79,0007.19
2022-07-20 16:59:00,,0830.3,5.01,0.00,29.4,27.9,00.0,38.1,31.3,22.3,0000.0,0023.50,0008.73,0007.15
